Weather History for Rutland, VT

Change the Weather History Date:

Monday, November 19, 2012

  Actual Average Record
Temperature  
Mean Temperature 36 °F -  
Max Temperature 46 °F - 69 °F (1954)
Min Temperature 25 °F - 8 °F (1956)
Degree Days  
Heating Degree Days 29    
Month to date heating degree days 525  
Since 1 July heating degree days 1160  
Cooling Degree Days 0    
Month to date cooling degree days 0  
Year to date cooling degree days 411  
Moisture  
Dew Point 24 °F    
Average Humidity 65    
Maximum Humidity 92    
Minimum Humidity 38    
Precipitation  
Precipitation 0.00 in - 0.48 in (1957)
Month to date precipitation 0.37  
Year to date precipitation 21.85  
Sea Level Pressure  
Sea Level Pressure 30.43 in    
Wind  
Wind Speed 6 mph (SE)    
Max Wind Speed 12 mph    
Max Gust Speed -    
Visibility 10 miles    
Events      
T = Trace of Precipitation, MM = Missing Value Source: NWS Daily Summary

Daily Weather History Graph

Daily Weather History Graph

Search for Another Location

Airport:

Trip Planner

Search our weather history database for the weather conditions in past years. The results will help you decide how hot, cold, wet, or windy it might be!

Date:

Astronomy

Nov. 19, 2012 Rise Set
Actual Time 6:51 AM EST 4:22 PM EST
Civil Twilight 6:20 AM EST 4:54 PM EST
Nautical Twilight 5:45 AM EST 5:29 PM EST
Astronomical Twilight 5:11 AM EST 6:03 PM EST
Moon 11:48 AM EST (11/19) 10:52 PM EST (11/19)
Length of Visible Light 10h 34m
Length of Day
9h 31m
Waxing Crescent, 40% of the Moon is Illuminated
Nov 19
Waxing Crescent
Nov 20
First Quarter
Nov 28
Full
Dec 6
Last Quarter
Dec 13
New

Hourly Weather History & Observations

Time (EST) Temp. Windchill Dew Point Humidity Pressure Visibility Wind Dir Wind Speed Gust Speed Precip Events Conditions
12:15 AM 28.4 °F 21.2 °F 23.0 °F 80% 30.58 in 10.0 mi SE 6.9 mph - N/A   Clear
12:55 AM 26.6 °F 20.0 °F 23.0 °F 86% 30.57 in 10.0 mi SE 5.8 mph - N/A   Clear
1:15 AM 28.4 °F 21.2 °F 24.8 °F 86% 30.57 in 10.0 mi SE 6.9 mph - N/A   Clear
1:35 AM 26.6 °F 18.2 °F 23.0 °F 86% 30.57 in 10.0 mi SE 8.1 mph - N/A   Clear
1:55 AM 28.4 °F 18.5 °F 24.8 °F 86% 30.57 in 10.0 mi SSE 11.5 mph - N/A   Clear
2:15 AM 28.4 °F 23.3 °F 24.8 °F 86% 30.57 in 10.0 mi SSE 4.6 mph - N/A   Clear
2:35 AM 26.6 °F 19.1 °F 23.0 °F 86% 30.57 in 10.0 mi ESE 6.9 mph - N/A   Clear
2:55 AM 28.4 °F 20.4 °F 24.8 °F 86% 30.56 in 10.0 mi SE 8.1 mph - N/A   Clear
3:15 AM 26.6 °F 20.0 °F 24.8 °F 93% 30.55 in 10.0 mi SSE 5.8 mph - N/A   Clear
3:35 AM 26.6 °F 20.0 °F 24.8 °F 93% 30.55 in 10.0 mi SE 5.8 mph - N/A   Clear
3:55 AM 26.6 °F 20.0 °F 23.0 °F 86% 30.56 in 10.0 mi SE 5.8 mph - N/A   Clear
4:35 AM 26.6 °F 21.2 °F 23.0 °F 86% 30.56 in 10.0 mi SSE 4.6 mph - N/A   Clear
4:55 AM 26.6 °F 20.0 °F 23.0 °F 86% 30.56 in 10.0 mi SSE 5.8 mph - N/A   Clear
5:15 AM 26.6 °F 19.1 °F 21.2 °F 80% 30.55 in 10.0 mi SE 6.9 mph - N/A   Clear
5:35 AM 26.6 °F 17.5 °F 21.2 °F 80% 30.54 in 10.0 mi SE 9.2 mph - N/A   Clear
5:55 AM 26.6 °F 19.1 °F 24.8 °F 93% 30.54 in 10.0 mi SE 6.9 mph - N/A   Clear
6:15 AM 24.8 °F 16.1 °F 21.2 °F 86% 30.54 in 10.0 mi SE 8.1 mph - N/A   Clear
6:35 AM 24.8 °F 16.1 °F 24.8 °F 100% 30.54 in 10.0 mi ESE 8.1 mph - N/A   Clear
7:15 AM 24.8 °F 16.1 °F 21.2 °F 86% 30.53 in 10.0 mi SE 8.1 mph - N/A   Clear
7:35 AM 26.6 °F 19.1 °F 23.0 °F 86% 30.53 in 10.0 mi SSE 6.9 mph - N/A   Clear
7:55 AM 26.6 °F 20.0 °F 24.8 °F 93% 30.52 in 10.0 mi SE 5.8 mph - N/A   Clear
8:35 AM 30.2 °F 26.7 °F 24.8 °F 80% 30.52 in 10.0 mi SE 3.5 mph - N/A   Clear
8:55 AM 30.2 °F - 24.8 °F 80% 30.51 in 10.0 mi Calm Calm - N/A   Clear
9:15 AM 32.0 °F - 26.6 °F 80% 30.50 in 10.0 mi Calm Calm - N/A   Clear
9:35 AM 33.8 °F - 26.6 °F 75% 30.50 in 10.0 mi Calm Calm - N/A   Clear
9:55 AM 35.6 °F - 26.6 °F 70% 30.49 in 10.0 mi Calm Calm - N/A   Clear
10:15 AM 35.6 °F - 26.6 °F 70% 30.48 in 10.0 mi Calm Calm - N/A   Clear
10:35 AM 37.4 °F - 28.4 °F 70% 30.48 in 10.0 mi Calm Calm - N/A   Clear
11:15 AM 39.2 °F - 26.6 °F 61% 30.46 in 10.0 mi Calm Calm - N/A   Clear
11:35 AM 42.8 °F 40.1 °F 26.6 °F 53% 30.44 in 10.0 mi NNE 4.6 mph - N/A   Clear
11:55 AM 42.8 °F 40.1 °F 26.6 °F 53% 30.43 in 10.0 mi NNW 4.6 mph - N/A   Clear
12:15 PM 44.6 °F 43.1 °F 26.6 °F 49% 30.42 in 10.0 mi NNW 3.5 mph - N/A   Clear
12:36 PM 44.6 °F 43.1 °F 24.8 °F 46% 30.41 in 10.0 mi NNW 3.5 mph - N/A   Clear
12:55 PM 44.6 °F 42.2 °F 26.6 °F 49% 30.41 in 10.0 mi WNW 4.6 mph - N/A   Clear
1:15 PM 44.6 °F 42.2 °F 26.6 °F 49% 30.40 in 10.0 mi North 4.6 mph - N/A   Clear
1:35 PM 46.4 °F - 24.8 °F 43% 30.38 in 10.0 mi Calm Calm - N/A   Clear
1:55 PM 46.4 °F - 23.0 °F 40% 30.37 in 10.0 mi Calm Calm - N/A   Clear
2:35 PM 46.4 °F - 23.0 °F 40% 30.37 in 10.0 mi Calm Calm - N/A   Clear
2:55 PM 46.4 °F 45.2 °F 24.8 °F 43% 30.36 in 10.0 mi North 3.5 mph - N/A   Clear
3:15 PM 46.4 °F 45.2 °F 24.8 °F 43% 30.36 in 10.0 mi NNW 3.5 mph - N/A   Clear
3:35 PM 46.4 °F 45.2 °F 24.8 °F 43% 30.35 in 10.0 mi NNW 3.5 mph - N/A   Clear
3:55 PM 46.4 °F - 23.0 °F 40% 30.35 in 10.0 mi Calm Calm - N/A   Clear
4:35 PM 39.2 °F - 23.0 °F 52% 30.34 in 10.0 mi Calm Calm - N/A   Clear
4:55 PM 37.4 °F 33.8 °F 24.8 °F 60% 30.34 in 10.0 mi ESE 4.6 mph - N/A   Clear
5:15 PM 37.4 °F 31.4 °F 23.0 °F 56% 30.34 in 10.0 mi ESE 8.1 mph - N/A   Clear
5:35 PM 35.6 °F 28.0 °F 24.8 °F 65% 30.34 in 10.0 mi ESE 10.4 mph - N/A   Clear
5:55 PM 35.6 °F 28.6 °F 24.8 °F 65% 30.34 in 10.0 mi SE 9.2 mph - N/A   Clear
6:15 PM 33.8 °F 26.4 °F 24.8 °F 70% 30.34 in 10.0 mi SE 9.2 mph - N/A   Clear
6:55 PM 33.8 °F 25.8 °F 23.0 °F 65% 30.33 in 10.0 mi ESE 10.4 mph - N/A   Clear
7:35 PM 33.8 °F 25.8 °F 21.2 °F 60% 30.32 in 10.0 mi ESE 10.4 mph - N/A   Clear
7:55 PM 32.0 °F 23.6 °F 21.2 °F 64% 30.32 in 10.0 mi SE 10.4 mph - N/A   Clear
8:15 PM 32.0 °F 24.2 °F 23.0 °F 69% 30.32 in 10.0 mi ESE 9.2 mph - N/A   Clear
8:35 PM 32.0 °F 22.5 °F 21.2 °F 64% 30.32 in 10.0 mi SE 12.7 mph - N/A   Clear
9:15 PM 30.2 °F 21.9 °F 21.2 °F 69% 30.30 in 10.0 mi ESE 9.2 mph - N/A   Clear
9:35 PM 30.2 °F 21.3 °F 21.2 °F 69% 30.30 in 10.0 mi ESE 10.4 mph - N/A   Clear
9:55 PM 30.2 °F 21.9 °F 21.2 °F 69% 30.29 in 10.0 mi ESE 9.2 mph - N/A   Clear
10:15 PM 30.2 °F 21.9 °F 21.2 °F 69% 30.28 in 10.0 mi ESE 9.2 mph - N/A   Clear
10:55 PM 28.4 °F 20.4 °F 21.2 °F 74% 30.28 in 10.0 mi SE 8.1 mph - N/A   Clear
11:15 PM 26.6 °F 20.0 °F 21.2 °F 80% 30.27 in 10.0 mi SE 5.8 mph - N/A   Clear
11:35 PM 28.4 °F 24.6 °F 21.2 °F 74% 30.27 in 10.0 mi SE 3.5 mph - N/A   Clear
11:55 PM 28.4 °F 22.2 °F 21.2 °F 74% 30.27 in 10.0 mi SE 5.8 mph - N/A   Clear